• In Germany
  • List of Countries
  • For 7 days
  • Water Temperature
  • Satellite Maps
  • Weather Map
  • Weather Widgets
  • user-avatar
    Login

    Hourly Weather Wojny

    Today, 19 August, Sunday

    Time Temperature Precipitation Wind Pressure Humidity
    00:00 +17°C° 0.1 mm 2 mps 751 mmHg 92%
    01:00 +16°C° 0.1 mm 2 mps 752 mmHg 92%
    02:00 +16°C° 0 mm 1 mps 752 mmHg 91%
    03:00 +15°C° 0 mm 1 mps 752 mmHg 90%
    04:00 +15°C° 0 mm 1 mps 752 mmHg 88%
    05:00 +16°C° 0 mm 1 mps 752 mmHg 84%
    06:00 +19°C° 0 mm 1 mps 752 mmHg 79%
    07:00 +20°C° 0 mm 1 mps 752 mmHg 74%
    08:00 +21°C° 0 mm 1 mps 752 mmHg 68%
    09:00 +23°C° 0 mm 2 mps 752 mmHg 61%
    10:00 +25°C° 0 mm 2 mps 752 mmHg 54%
    11:00 +25°C° 0 mm 2 mps 752 mmHg 51%
    12:00 +26°C° 0 mm 2 mps 752 mmHg 49%
    13:00 +27°C° 0 mm 3 mps 752 mmHg 47%
    14:00 +27°C° 0 mm 2 mps 751 mmHg 48%
    15:00 +26°C° 0 mm 2 mps 751 mmHg 49%
    16:00 +26°C° 0 mm 2 mps 751 mmHg 50%
    17:00 +25°C° 0 mm 1 mps 751 mmHg 56%
    18:00 +23°C° 0 mm 1 mps 751 mmHg 62%
    19:00 +21°C° 0 mm 1 mps 751 mmHg 68%
    20:00 +21°C° 0 mm 1 mps 751 mmHg 69%
    21:00 +20°C° 0 mm 1 mps 751 mmHg 71%
    22:00 +20°C° 0 mm 1 mps 751 mmHg 72%
    23:00 +18°C° 0 mm 2 mps 750 mmHg 73%

    Tomorrow, 20 August, Monday

    Time Temperature Precipitation Wind Pressure Humidity
    00:00 +18°C° 0 mm 2 mps 750 mmHg 73%
    01:00 +18°C° 0 mm 2 mps 750 mmHg 74%
    02:00 +17°C° 0 mm 2 mps 750 mmHg 75%
    03:00 +17°C° 0 mm 2 mps 749 mmHg 77%
    04:00 +17°C° 0 mm 2 mps 749 mmHg 78%
    05:00 +18°C° 0 mm 3 mps 749 mmHg 75%
    06:00 +20°C° 0 mm 3 mps 749 mmHg 73%
    07:00 +21°C° 0 mm 3 mps 748 mmHg 70%
    08:00 +23°C° 0 mm 4 mps 748 mmHg 65%
    09:00 +26°C° 0 mm 4 mps 748 mmHg 59%
    10:00 +28°C° 0 mm 5 mps 748 mmHg 54%
    11:00 +28°C° 0.2 mm 5 mps 747 mmHg 53%
    12:00 +28°C° 0.2 mm 5 mps 747 mmHg 53%
    13:00 +29°C° 0.2 mm 5 mps 746 mmHg 52%
    14:00 +28°C° 0.2 mm 5 mps 746 mmHg 55%
    15:00 +28°C° 0.2 mm 4 mps 746 mmHg 58%
    16:00 +27°C° 0.2 mm 3 mps 745 mmHg 61%
    17:00 +26°C° 0.1 mm 3 mps 745 mmHg 63%
    18:00 +25°C° 0.1 mm 3 mps 745 mmHg 66%
    19:00 +24°C° 0.1 mm 3 mps 745 mmHg 69%
    20:00 +22°C° 0.1 mm 3 mps 745 mmHg 74%
    21:00 +21°C° 0.1 mm 3 mps 745 mmHg 80%
    22:00 +20°C° 0.1 mm 3 mps 745 mmHg 85%
    23:00 +19°C° 0 mm 3 mps 746 mmHg 86%

    Day after tomorrow, 21 August, Tuesday

    Time Temperature Precipitation Wind Pressure Humidity
    00:00 +18°C° 0 mm 4 mps 746 mmHg 88%
    01:00 +17°C° 0 mm 4 mps 746 mmHg 90%
    02:00 +15°C° 0 mm 4 mps 746 mmHg 90%
    03:00 +14°C° 0 mm 4 mps 747 mmHg 90%
    04:00 +13°C° 0 mm 4 mps 747 mmHg 90%
    05:00 +14°C° 0 mm 4 mps 748 mmHg 86%
    06:00 +15°C° 0 mm 4 mps 748 mmHg 83%
    07:00 +17°C° 0 mm 4 mps 749 mmHg 80%
    08:00 +19°C° 0 mm 4 mps 749 mmHg 73%
    09:00 +20°C° 0 mm 4 mps 749 mmHg 66%
    10:00 +21°C° 0 mm 4 mps 750 mmHg 60%
    11:00 +21°C° 0 mm 4 mps 750 mmHg 58%
    12:00 +22°C° 0 mm 4 mps 750 mmHg 55%
    13:00 +22°C° 0 mm 4 mps 750 mmHg 53%
    14:00 +22°C° 0.1 mm 3 mps 750 mmHg 55%
    15:00 +22°C° 0.1 mm 3 mps 751 mmHg 57%
    16:00 +21°C° 0.1 mm 3 mps 751 mmHg 59%
    17:00 +20°C° 0 mm 3 mps 751 mmHg 66%
    18:00 +18°C° 0 mm 3 mps 751 mmHg 72%
    19:00 +17°C° 0 mm 2 mps 752 mmHg 78%
    20:00 +16°C° 0 mm 2 mps 752 mmHg 81%
    21:00 +15°C° 0 mm 2 mps 752 mmHg 85%
    22:00 +14°C° 0 mm 2 mps 753 mmHg 89%
    23:00 +14°C° 0 mm 2 mps 753 mmHg 89%

    22 August, Wednesday

    Time Temperature Precipitation Wind Pressure Humidity
    00:00 +13°C° 0 mm 1 mps 753 mmHg 90%
    01:00 +13°C° 0 mm 1 mps 753 mmHg 91%
    02:00 +12°C° 0 mm 1 mps 753 mmHg 91%
    03:00 +12°C° 0 mm 1 mps 754 mmHg 91%
    04:00 +11°C° 0 mm 1 mps 754 mmHg 91%
    05:00 +13°C° 0 mm 1 mps 754 mmHg 85%
    06:00 +14°C° 0 mm 1 mps 754 mmHg 79%
    07:00 +16°C° 0 mm 1 mps 754 mmHg 73%
    08:00 +18°C° 0 mm 1 mps 754 mmHg 66%
    09:00 +20°C° 0 mm 1 mps 754 mmHg 60%
    10:00 +22°C° 0 mm 1 mps 754 mmHg 54%
    11:00 +23°C° 0 mm 1 mps 754 mmHg 50%
    12:00 +24°C° 0 mm 2 mps 753 mmHg 47%
    13:00 +24°C° 0 mm 2 mps 753 mmHg 43%
    14:00 +25°C° 0 mm 1 mps 753 mmHg 43%
    15:00 +25°C° 0 mm 1 mps 752 mmHg 44%
    16:00 +25°C° 0 mm 1 mps 752 mmHg 44%
    17:00 +23°C° 0 mm 1 mps 752 mmHg 50%
    18:00 +20°C° 0 mm 2 mps 752 mmHg 55%
    19:00 +18°C° 0 mm 2 mps 752 mmHg 61%
    20:00 +18°C° 0 mm 2 mps 752 mmHg 62%
    21:00 +17°C° 0 mm 2 mps 752 mmHg 64%
    22:00 +17°C° 0 mm 2 mps 752 mmHg 66%
    23:00 +16°C° 0 mm 3 mps 751 mmHg 69%

    23 August, Thursday

    Time Temperature Precipitation Wind Pressure Humidity
    00:00 +16°C° 0 mm 3 mps 751 mmHg 72%
    01:00 +16°C° 0 mm 3 mps 751 mmHg 75%
    02:00 +14°C° 0 mm 3 mps 751 mmHg 78%
    03:00 +14°C° 0 mm 3 mps 751 mmHg 80%
    04:00 +14°C° 0 mm 3 mps 751 mmHg 83%
    05:00 +16°C° 0 mm 3 mps 751 mmHg 79%
    06:00 +18°C° 0 mm 3 mps 751 mmHg 75%
    07:00 +19°C° 0 mm 3 mps 751 mmHg 71%
    08:00 +21°C° 0 mm 3 mps 751 mmHg 65%
    09:00 +24°C° 0 mm 3 mps 750 mmHg 60%
    10:00 +25°C° 0 mm 3 mps 750 mmHg 54%
    11:00 +26°C° 0 mm 3 mps 750 mmHg 51%
    12:00 +27°C° 0 mm 3 mps 750 mmHg 48%
    13:00 +27°C° 0 mm 3 mps 749 mmHg 46%
    14:00 +27°C° 0 mm 3 mps 749 mmHg 46%
    15:00 +27°C° 0 mm 3 mps 749 mmHg 47%
    16:00 +27°C° 0 mm 2 mps 748 mmHg 47%
    17:00 +25°C° 0 mm 2 mps 748 mmHg 53%
    18:00 +22°C° 0 mm 3 mps 748 mmHg 58%
    19:00 +20°C° 0 mm 3 mps 748 mmHg 64%
    20:00 +20°C° 0 mm 3 mps 747 mmHg 67%
    21:00 +19°C° 0 mm 3 mps 747 mmHg 71%
    22:00 +18°C° 0 mm 3 mps 747 mmHg 75%
    23:00 +18°C° 0 mm 3 mps 747 mmHg 78%

    24 August, Friday

    Time Temperature Precipitation Wind Pressure Humidity
    00:00 +17°C° 0 mm 3 mps 747 mmHg 82%
    01:00 +17°C° 0 mm 3 mps 746 mmHg 85%
    02:00 +17°C° 0 mm 3 mps 746 mmHg 87%
    03:00 +16°C° 0 mm 3 mps 746 mmHg 89%
    04:00 +16°C° 0 mm 3 mps 745 mmHg 91%
    05:00 +17°C° 0 mm 3 mps 745 mmHg 87%
    06:00 +18°C° 0 mm 4 mps 745 mmHg 84%
    07:00 +20°C° 0 mm 4 mps 745 mmHg 80%
    08:00 +22°C° 0 mm 4 mps 745 mmHg 73%
    09:00 +25°C° 0 mm 4 mps 745 mmHg 67%
    10:00 +27°C° 0 mm 5 mps 744 mmHg 60%
    11:00 +28°C° 0 mm 4 mps 744 mmHg 56%
    12:00 +29°C° 0 mm 4 mps 744 mmHg 51%
    13:00 +30°C° 0 mm 4 mps 743 mmHg 47%
    14:00 +29°C° 0 mm 4 mps 743 mmHg 51%
    15:00 +28°C° 0 mm 4 mps 742 mmHg 55%
    16:00 +27°C° 0 mm 3 mps 742 mmHg 59%
    17:00 +26°C° 0.4 mm 4 mps 742 mmHg 63%
    18:00 +25°C° 0.4 mm 4 mps 742 mmHg 67%
    19:00 +23°C° 0.4 mm 4 mps 741 mmHg 71%
    20:00 +22°C° 0.6 mm 4 mps 741 mmHg 76%
    21:00 +21°C° 0.6 mm 4 mps 742 mmHg 81%
    22:00 +20°C° 0.6 mm 4 mps 742 mmHg 85%
    23:00 +20°C° 0.8 mm 3 mps 742 mmHg 89%
    Show more